DW0602 Weather Reports


Display with metric or nautical units.
time (UTC)temp
F
wind
direction
speed
MPH
gust
MPH
rain 1hr
in
rain 24hr
in
rain mn
in
humidity
%
barometer
mb
20260504070349 47 335 1.0 4.0 0.00 0.00 0.00 50 1013.1
20260504050630 51 313 1.0 4.0 0.00 0.00 0.00 40 1013.7
20260504050125 52 325 1.0 4.0 0.00 0.00 0.00 39 1013.7
20260504050020 51 316 0.0 4.0 0.00 0.00 0.00 39 1014.3
20260504045618 52 307 1.0 2.0 0.00 0.00 0.00 39 1013.7
20260504045112 52 328 1.0 3.0 0.00 0.00 0.00 38 1013.7
20260504044606 52 316 1.0 3.0 0.00 0.00 0.00 38 1013.7
20260504044532 52 279 0.0 3.0 0.00 0.00 0.00 37 1014.2
20260504044059 52 277 0.0 3.0 0.00 0.00 0.00 37 1013.8
20260504043554 53 293 0.0 2.0 0.00 0.00 0.00 37 1013.8
20260504043048 53 295 0.0 2.0 0.00 0.00 0.00 36 1013.8
20260504043027 52 291 0.0 2.0 0.00 0.00 0.00 36 1014.4
20260504042542 53 341 0.0 0.0 0.00 0.00 0.00 36 1014.0
20260504042035 53 341 0.0 1.0 0.00 0.00 0.00 36 1013.8
20260504041528 53 334 0.0 1.0 0.00 0.00 0.00 35 1014.4
20260504041024 54 340 0.0 2.0 0.00 0.00 0.00 36 1013.8
20260504040030 54 333 1.0 3.0 0.00 0.00 0.00 34 1014.5
20260504040012 55 338 1.0 3.0 0.00 0.00 0.00 35 1013.8
20260504035507 55 336 0.0 2.0 0.00 0.00 0.00 35 1013.8
20260504035000 55 336 0.0 2.0 0.00 0.00 0.00 34 1013.8
20260504034526 55 329 0.0 2.0 0.00 0.00 0.00 33 1014.4
20260504033948 56 356 0.0 3.0 0.00 0.00 0.00 34 1013.8
20260504033441 56 356 0.0 3.0 0.00 0.00 0.00 33 1013.8
20260504033026 56 341 0.0 2.0 0.00 0.00 0.00 32 1014.5
20260504032430 56 348 0.0 2.0 0.00 0.00 0.00 32 1013.8
20260504031526 56 319 0.0 3.0 0.00 0.00 0.00 31 1014.2
20260504031418 57 277 0.0 3.0 0.00 0.00 0.00 31 1013.6
20260504030039 57 341 1.0 5.0 0.00 0.00 0.00 29 1014.0
20260504025900 58 8 1.0 4.0 0.00 0.00 0.00 30 1013.5
20260504025354 58 8 1.0 4.0 0.00 0.00 0.00 29 1013.3
20260504024529 59 345 1.0 8.0 0.00 0.00 0.00 27 1013.9
20260504024341 59 329 1.0 7.0 0.00 0.00 0.00 27 1013.3
20260504023836 60 350 1.0 3.0 0.00 0.00 0.00 26 1013.2
20260504023330 60 335 0.0 3.0 0.00 0.00 0.00 26 1013.2
20260504023026 60 343 0.0 2.0 0.00 0.00 0.00 25 1013.8
20260504021812 61 339 1.0 3.0 0.00 0.00 0.00 24 1013.0
20260504021526 61 341 0.0 8.0 0.00 0.00 0.00 24 1013.5
20260504021306 61 340 2.0 7.0 0.00 0.00 0.00 24 1013.1
20260504020800 62 323 4.0 7.0 0.00 0.00 0.00 24 1013.2
20260504020026 62 266 4.0 11.0 0.00 0.00 0.00 23 1013.8
20260504015748 62 298 3.0 10.0 0.00 0.00 0.00 23 1013.2
20260504015242 62 280 2.0 7.0 0.00 0.00 0.00 22 1013.2
20260504014737 62 325 1.0 5.0 0.00 0.00 0.00 22 1013.1
20260504014539 62 281 2.0 6.0 0.00 0.00 0.00 21 1013.6
20260504014237 62 285 1.0 5.0 0.00 0.00 0.00 22 1013.0
20260504013739 62 297 1.0 5.0 0.00 0.00 0.00 22 1012.9
20260504013237 63 319 2.0 6.0 0.00 0.00 0.00 21 1012.9
20260504013032 62 290 0.0 9.0 0.00 0.00 0.00 21 1013.4
20260504012737 63 359 2.0 8.0 0.00 0.00 0.00 22 1012.7
20260504012234 62 205 2.0 8.0 0.00 0.00 0.00 23 1012.9
20260504011735 63 347 1.0 5.0 0.00 0.00 0.00 23 1013.1
20260504011524 62 347 3.0 8.0 0.00 0.00 0.00 22 1013.5
20260504011236 63 342 1.0 7.0 0.00 0.00 0.00 24 1012.9
20260504010737 63 8 2.0 7.0 0.00 0.00 0.00 22 1012.9
20260504010235 62 351 1.0 4.0 0.00 0.00 0.00 23 1012.9
20260504010009 62 340 1.0 3.0 0.00 0.00 0.00 23 1013.4
20260504005234 63 46 2.0 6.0 0.00 0.00 0.00 23 1012.6
20260504004734 63 48 4.0 6.0 0.00 0.00 0.00 22 1012.5
20260504004513 63 57 3.0 6.0 0.00 0.00 0.00 23 1013.1
20260504004233 63 47 4.0 6.0 0.00 0.00 0.00 22 1012.5
20260504003735 63 29 3.0 8.0 0.00 0.00 0.00 22 1012.6
20260504003234 64 50 3.0 9.0 0.00 0.00 0.00 22 1012.7
20260504003028 64 20 2.0 10.0 0.00 0.00 0.00 22 1013.3
20260504002736 64 52 2.0 9.0 0.00 0.00 0.00 22 1012.7
20260504002236 65 58 2.0 5.0 0.00 0.00 0.00 21 1012.7
20260504001729 65 57 3.0 5.0 0.00 0.00 0.00 19 1012.9
20260504001503 64 53 3.0 6.0 0.00 0.00 0.00 19 1013.4
20260504001224 65 51 2.0 5.0 0.00 0.00 0.00 20 1012.7
20260504000717 65 91 3.0 7.0 0.00 0.00 0.00 20 1012.9
20260504000212 66 94 4.0 7.0 0.00 0.00 0.00 19 1012.7
20260504000005 65 136 4.0 8.0 0.00 0.00 0.00 18 1013.4
20260503235705 66 94 2.0 6.0 0.00 0.00 0.00 17 1012.7
20260503234529 66 130 0.0 8.0 0.00 0.00 0.00 18 1013.4
20260503234148 67 144 3.0 7.0 0.00 0.00 0.00 18 1012.9
20260503233136 67 173 2.0 6.0 0.00 0.00 0.00 18 1012.7
20260503233015 67 186 3.0 7.0 0.00 0.00 0.00 18 1013.4
20260503232630 67 169 2.0 4.0 0.00 0.00 0.00 19 1012.7
20260503232124 67 162 3.0 7.0 0.00 0.00 0.00 17 1012.7
20260503231617 68 178 2.0 7.0 0.00 0.00 0.00 17 1012.9
20260503231523 68 167 3.0 8.0 0.00 0.00 0.00 16 1013.5
20260503231111 68 182 2.0 5.0 0.00 0.00 0.00 17 1012.7
20260503230605 68 52 3.0 5.0 0.00 0.00 0.00 17 1012.7
20260503230059 68 103 2.0 6.0 0.00 0.00 0.00 16 1012.9
20260503230004 68 126 2.0 7.0 0.00 0.00 0.00 16 1013.5
20260503225553 68 150 1.0 6.0 0.00 0.00 0.00 17 1012.9
20260503225047 68 189 1.0 4.0 0.00 0.00 0.00 17 1013.1
20260503224541 68 305 2.0 4.0 0.00 0.00 0.00 16 1013.0
20260503224508 67 302 0.0 6.0 0.00 0.00 0.00 16 1013.6
20260503224035 68 341 2.0 5.0 0.00 0.00 0.00 16 1013.0
20260503223529 68 290 2.0 5.0 0.00 0.00 0.00 16 1013.0
20260503223023 68 118 2.0 7.0 0.00 0.00 0.00 18 1013.1
20260503223016 68 124 0.0 8.0 0.00 0.00 0.00 17 1013.7
20260503222011 68 186 2.0 7.0 0.00 0.00 0.00 17 1013.3
20260503221520 68 203 1.0 8.0 0.00 0.00 0.00 17 1013.8
20260503220959 68 157 3.0 8.0 0.00 0.00 0.00 18 1013.3
20260503220454 68 254 2.0 8.0 0.00 0.00 0.00 17 1013.5
20260503220023 68 288 1.0 4.0 0.00 0.00 0.00 15 1014.0
20260503215952 69 278 1.0 4.0 0.00 0.00 0.00 16 1013.6
20260503215455 69 49 2.0 6.0 0.00 0.00 0.00 15 1013.6
20260503214950 69 74 3.0 6.0 0.00 0.00 0.00 16 1013.7
20260503214506 68 55 2.0 7.0 0.00 0.00 0.00 16 1014.2
20260503214449 69 15 3.0 6.0 0.00 0.00 0.00 17 1013.8
20260503213949 69 0 3.0 6.0 0.00 0.00 0.00 17 1013.8
20260503213450 68 330 2.0 6.0 0.00 0.00 0.00 17 1014.0
20260503213012 67 53 1.0 6.0 0.00 0.00 0.00 18 1014.4
20260503212950 68 58 1.0 5.0 0.00 0.00 0.00 18 1014.1
20260503212449 67 64 1.0 4.0 0.00 0.00 0.00 17 1014.2
20260503211947 66 343 1.0 4.0 0.00 0.00 0.00 17 1014.3
20260503211518 66 285 0.0 7.0 0.00 0.00 0.00 18 1014.9
20260503211446 66 289 2.0 6.0 0.00 0.00 0.00 18 1014.4
20260503210947 66 103 4.0 9.0 0.00 0.00 0.00 17 1014.4
20260503210448 66 80 4.0 9.0 0.00 0.00 0.00 16 1014.6
20260503210026 66 13 2.0 9.0 0.00 0.00 0.00 16 1015.3
20260503205947 67 41 3.0 8.0 0.00 0.00 0.00 17 1014.7
20260503204944 67 89 3.0 7.0 0.00 0.00 0.00 17 1014.9
20260503204533 67 66 4.0 8.0 0.00 0.00 0.00 16 1015.5
20260503204444 67 46 3.0 7.0 0.00 0.00 0.00 16 1014.9
20260503203943 67 82 2.0 6.0 0.00 0.00 0.00 16 1015.1
20260503203443 67 71 2.0 4.0 0.00 0.00 0.00 16 1015.2
20260503203014 67 307 1.0 4.0 0.00 0.00 0.00 16 1015.7
20260503202944 67 68 2.0 4.0 0.00 0.00 0.00 18 1015.2
20260503202443 68 39 2.0 7.0 0.00 0.00 0.00 15 1015.3
20260503201516 69 247 2.0 8.0 0.00 0.00 0.00 14 1015.9
20260503201443 69 334 3.0 7.0 0.00 0.00 0.00 14 1015.4
20260503200944 69 291 4.0 9.0 0.00 0.00 0.00 16 1015.4
20260503200439 69 304 4.0 9.0 0.00 0.00 0.00 15 1015.7
20260503200019 68 329 3.0 10.0 0.00 0.00 0.00 16 1016.0
20260503195940 68 319 4.0 9.0 0.00 0.00 0.00 15 1015.5
20260503195438 68 298 3.0 6.0 0.00 0.00 0.00 15 1015.5
20260503194939 68 0 2.0 6.0 0.00 0.00 0.00 14 1015.7
20260503194525 68 89 1.0 9.0 0.00 0.00 0.00 15 1016.1
20260503194440 68 85 3.0 8.0 0.00 0.00 0.00 16 1015.7
20260503193940 68 37 3.0 8.0 0.00 0.00 0.00 16 1015.8
20260503193440 68 328 2.0 9.0 0.00 0.00 0.00 18 1015.9
20260503193034 67 325 3.0 10.0 0.00 0.00 0.00 16 1016.6
20260503192440 67 299 2.0 8.0 0.00 0.00 0.00 16 1016.0
20260503191940 67 50 2.0 6.0 0.00 0.00 0.00 16 1016.0
20260503191510 67 38 2.0 10.0 0.00 0.00 0.00 16 1016.8
20260503190440 68 29 3.0 9.0 0.00 0.00 0.00 16 1016.3
20260503190017 66 36 3.0 9.0 0.00 0.00 0.00 17 1017.0
20260503185941 67 45 3.0 8.0 0.00 0.00 0.00 18 1016.4
20260503185440 67 47 3.0 8.0 0.00 0.00 0.00 16 1016.5
20260503184941 67 33 3.0 12.0 0.00 0.00 0.00 16 1016.5
20260503184534 66 77 4.0 13.0 0.00 0.00 0.00 15 1017.4
20260503184438 67 316 3.0 12.0 0.00 0.00 0.00 16 1016.6
20260503183938 68 352 3.0 11.0 0.00 0.00 0.00 14 1016.9
20260503183439 68 283 4.0 10.0 0.00 0.00 0.00 16 1017.0
20260503183026 68 327 3.0 11.0 0.00 0.00 0.00 15 1017.7
20260503182938 68 349 3.0 10.0 0.00 0.00 0.00 16 1017.1
20260503182439 68 319 3.0 8.0 0.00 0.00 0.00 16 1017.1
20260503181939 67 359 3.0 8.0 0.00 0.00 0.00 17 1017.1
20260503181525 67 273 3.0 12.0 0.00 0.00 0.00 15 1017.8
20260503181439 67 287 2.0 11.0 0.00 0.00 0.00 17 1017.3
20260503180940 67 37 2.0 11.0 0.00 0.00 0.00 18 1017.3
20260503180021 65 110 1.0 11.0 0.00 0.00 0.00 16 1018.1
20260503175937 65 139 4.0 10.0 0.00 0.00 0.00 17 1017.5
20260503175438 66 297 3.0 8.0 0.00 0.00 0.00 14 1017.6
20260503174937 65 53 4.0 10.0 0.00 0.00 0.00 15 1017.6
20260503174519 64 311 3.0 11.0 0.00 0.00 0.00 15 1018.3
20260503173931 65 262 4.0 10.0 0.00 0.00 0.00 17 1017.9
20260503173425 64 257 4.0 12.0 0.00 0.00 0.00 18 1017.9
20260503173030 64 281 4.0 13.0 0.00 0.00 0.00 17 1018.5
20260503172919 64 2 4.0 12.0 0.00 0.00 0.00 18 1018.0
20260503172413 64 302 4.0 10.0 0.00 0.00 0.00 17 1017.9
20260503171526 64 281 2.0 11.0 0.00 0.00 0.00 18 1018.6
20260503171402 64 359 5.0 10.0 0.00 0.00 0.00 18 1018.1
20260503170856 64 318 5.0 9.0 0.00 0.00 0.00 19 1018.2
20260503170349 64 305 4.0 9.0 0.00 0.00 0.00 19 1018.2
20260503150244 61 278 4.0 11.0 0.00 0.00 0.00 25 1019.0
20260503110824 44 283 1.0 3.0 0.00 0.00 0.00 43 1018.2
20260503110319 44 306 1.0 3.0 0.00 0.00 0.00 44 1018.2
20260503100207 39 343 0.0 1.0 0.00 0.00 0.00 59 1018.2
20260503081524 37 312 0.0 1.0 0.00 0.00 0.00 60 1019.2
20260503081501 37 317 0.0 1.0 0.00 0.00 0.00 60 1018.7
20260503080449 37 317 0.0 0.0 0.00 0.00 0.00 60 1018.7